This demonstration page uses our WeatherBlox Daily Observations layout. Learn more.

38.88101, -77.10428

Hourly Observations for February 27, 2018

Temp ( °F °C ) Dew Point ( °F °C ) Humidity (%) Winds ( mph kmh ) Pressure ( in mb ) Visibility ( mi km ) Precip ( " mm )
12:52 am 00:52 Clear 42 5.6 34 1.1 73 73 N 3 6 30.35 1028 10 16.0934 0 0
1:52 am 01:52 Clear 42 5.6 37 2.8 82 82 Calm 30.37 1029 10 16.0934 0 0
2:52 am 02:52 Clear 40 4.4 30 -1.1 68 68 N 6 9 30.37 1029 10 16.0934 0 0
3:52 am 03:52 Clear 39 3.9 29 -1.7 67 67 Calm 30.38 1029 10 16.0934 0 0
4:52 am 04:52 Clear 38 3.3 30 -1.1 73 73 N 5 7 30.4 1029 10 16.0934 0 0
5:52 am 05:52 Clear 36 2.2 28 -2.2 73 73 N 5 7 30.41 1030 10 16.0934 0 0
6:52 am 06:52 Sunny 40 4.4 28 -2.2 63 63 NW 3 6 30.42 1030 10 16.0934 0 0
7:52 am 07:52 Sunny 42 5.6 33 0.6 71 71 Calm 30.45 1031 10 16.0934 0 0
8:52 am 08:52 Sunny 48 8.9 29 -1.7 48 48 N 6 9 30.46 1032 10 16.0934 0 0
9:52 am 09:52 Sunny 52 11.1 28 -2.2 40 40 VRB 5 7 30.48 1032 10 16.0934 0 0
10:52 am 10:52 Sunny 53 11.7 22 -5.6 30 30 ESE 5 7 30.47 1032 10 16.0934 0 0
11:52 am 11:52 Sunny 55 12.8 20 -6.7 25 25 ESE 3 6 30.46 1032 10 16.0934 0 0
12:52 pm 12:52 Sunny 56 13.3 23 -5 28 28 SE 5 7 30.43 1030 10 16.0934 0 0
1:52 pm 13:52 Sunny 56 13.3 21 -6.1 26 26 SSE 7 11 30.39 1029 10 16.0934 0 0
2:52 pm 14:52 Mostly Sunny 58 14.4 26 -3.3 29 29 S 10 17 30.36 1028 10 16.0934 0 0
3:52 pm 15:52 Mostly Sunny 57 13.9 28 -2.2 33 33 S 12 19 30.34 1027 10 16.0934 0 0
4:52 pm 16:52 Partly Cloudy 57 13.9 25 -3.9 29 29 SSW 9 15 30.32 1027 10 16.0934 0 0
5:52 pm 17:52 Partly Cloudy 53 11.7 29 -1.7 40 40 S 10 17 30.3 1026 10 16.0934 0 0
6:52 pm 18:52 Partly Cloudy 50 10 31 -0.6 48 48 S 9 15 30.3 1026 10 16.0934 0 0
7:52 pm 19:52 Partly Cloudy 49 9.4 31 -0.6 50 50 S 9 15 30.3 1026 10 16.0934 0 0
8:52 pm 20:52 Partly Cloudy 48 8.9 28 -2.2 46 46 S 10 17 30.29 1026 10 16.0934 0 0
9:52 pm 21:52 Partly Cloudy 47 8.3 30 -1.1 52 52 S 10 17 30.26 1025 10 16.0934 0 0
10:52 pm 22:52 Mostly Cloudy 46 7.8 31 -0.6 56 56 S 10 17 30.26 1025 10 16.0934 0 0
11:52 pm 23:52 Mostly Cloudy 46 7.8 32 0 58 58 S 13 20 30.24 1024 10 16.0934 0 0

Powered by AerisWeather